AUA736D LYPG-LOWW

Flight info

Callsign AUA736D
Flight time 1h 5m
Altitude 36000
Route NIK DCT GACMO DCT OBUTI OBUTI2W
Aircraft A320/M-SDE3FGHIRWY/LB1

Departure

Time 2026-04-26 13:01
Airport Podgorica Airport / Podgorica Golubovci Airbase (LYPG)

Arrival

Time 2026-04-26 14:07
Airport Vienna International Airport (LOWW)
Time Latitude Longitude Altitude Speed Heading
2026-04-26 12:37 42.36810 19.24778 121 ft 0 kts 266°
2026-04-26 12:52 42.36810 19.24806 117 ft 4 kts 282°
2026-04-26 12:52 42.36800 19.24834 117 ft 4 kts 336°
2026-04-26 12:53 42.36789 19.24838 118 ft 0 kts
2026-04-26 12:56 42.36807 19.24839 119 ft 4 kts
2026-04-26 12:56 42.36841 19.24842 121 ft 5 kts
2026-04-26 12:57 42.36867 19.24844 121 ft 3 kts
2026-04-26 12:57 42.36880 19.24846 118 ft 1 kts
2026-04-26 12:57 42.36898 19.24849 119 ft 8 kts
2026-04-26 12:58 42.36930 19.24981 123 ft 12 kts 95°
2026-04-26 12:58 42.36952 19.25077 122 ft 6 kts 29°
2026-04-26 12:58 42.36972 19.25070 124 ft 12 kts 339°
2026-04-26 12:58 42.37050 19.25058 125 ft 8 kts
2026-04-26 12:59 42.37084 19.25094 120 ft 6 kts 66°
2026-04-26 12:59 42.37086 19.25142 123 ft 5 kts 96°
2026-04-26 12:59 42.37078 19.25183 123 ft 4 kts 107°
2026-04-26 12:59 42.37065 19.25223 121 ft 5 kts 117°
2026-04-26 13:00 42.37042 19.25272 119 ft 8 kts 128°
2026-04-26 13:00 42.36992 19.25293 119 ft 7 kts 179°
2026-04-26 13:00 42.36988 19.25293 119 ft 0 kts 180°
2026-04-26 13:00 42.36965 19.25293 121 ft 19 kts 181°
2026-04-26 13:01 42.36544 19.25261 120 ft 97 kts 184°
2026-04-26 13:01 42.35664 19.25168 107 ft 154 kts 183°
2026-04-26 13:01 42.34536 19.25011 569 ft 168 kts 184°
2026-04-26 13:01 42.33361 19.24827 1221 ft 173 kts 187°
2026-04-26 13:02 42.32140 19.24581 1929 ft 182 kts 188°
2026-04-26 13:02 42.30844 19.24333 2503 ft 195 kts 187°
2026-04-26 13:02 42.29437 19.24132 2911 ft 216 kts 188°
2026-04-26 13:02 42.27853 19.23683 3086 ft 252 kts 201°
2026-04-26 13:03 42.26419 19.22276 3829 ft 262 kts 234°
2026-04-26 13:03 42.25822 19.19962 4650 ft 269 kts 273°
2026-04-26 13:03 42.26421 19.17606 5471 ft 271 kts 312°
2026-04-26 13:03 42.27921 19.16276 6663 ft 254 kts 347°
2026-04-26 13:04 42.29659 19.16166 7745 ft 249 kts
2026-04-26 13:04 42.31389 19.16308 8756 ft 250 kts
2026-04-26 13:04 42.33139 19.16452 9615 ft 256 kts
2026-04-26 13:04 42.34915 19.16600 10343 ft 257 kts
2026-04-26 13:05 42.36711 19.16746 11168 ft 260 kts
2026-04-26 13:05 42.38534 19.16722 11968 ft 265 kts 354°
2026-04-26 13:05 42.40373 19.16348 12801 ft 269 kts 348°
2026-04-26 13:05 42.42221 19.15825 13622 ft 274 kts 347°
2026-04-26 13:06 42.44094 19.15254 14351 ft 278 kts 346°
2026-04-26 13:06 42.45993 19.14680 15087 ft 281 kts 346°
2026-04-26 13:06 42.47913 19.14123 15837 ft 284 kts 347°
2026-04-26 13:06 42.49868 19.13580 16552 ft 289 kts 347°
2026-04-26 13:07 42.51849 19.13047 17276 ft 292 kts 347°
2026-04-26 13:07 42.53845 19.12446 17966 ft 296 kts 340°
2026-04-26 13:07 42.55753 19.11311 18422 ft 308 kts 328°
2026-04-26 13:07 42.57607 19.09730 18784 ft 320 kts 326°
2026-04-26 13:08 42.59504 19.08090 19357 ft 325 kts 326°
2026-04-26 13:08 42.61417 19.06433 20003 ft 328 kts 327°
2026-04-26 13:08 42.63352 19.04760 20662 ft 331 kts 326°
2026-04-26 13:08 42.65298 19.03079 21327 ft 333 kts 326°
2026-04-26 13:09 42.67259 19.01386 21965 ft 336 kts 326°
2026-04-26 13:09 42.69270 18.99655 22623 ft 339 kts 326°
2026-04-26 13:09 42.71274 18.97930 23258 ft 342 kts 326°
2026-04-26 13:09 42.72611 18.96778 23661 ft 344 kts 326°
2026-04-26 13:10 42.74635 18.95029 24174 ft 347 kts 326°
2026-04-26 13:10 42.76677 18.93260 24698 ft 349 kts 326°
2026-04-26 13:10 42.78721 18.91449 25099 ft 356 kts 324°
2026-04-26 13:10 42.80793 18.89470 25222 ft 371 kts 323°
2026-04-26 13:11 42.82914 18.87341 25345 ft 385 kts 322°
2026-04-26 13:11 42.85095 18.85114 25482 ft 398 kts 322°
2026-04-26 13:11 42.87329 18.82833 25770 ft 405 kts 323°
2026-04-26 13:11 42.89607 18.80525 26139 ft 409 kts 323°
2026-04-26 13:12 42.91905 18.78218 26575 ft 411 kts 323°
2026-04-26 13:12 42.94225 18.75903 26988 ft 414 kts 323°
2026-04-26 13:12 42.96560 18.73580 27368 ft 417 kts 323°
2026-04-26 13:12 42.98915 18.71236 27794 ft 419 kts 323°
2026-04-26 13:13 43.01274 18.68882 28198 ft 422 kts 323°
2026-04-26 13:13 43.03648 18.66505 28591 ft 424 kts 323°
2026-04-26 13:13 43.06031 18.64112 28960 ft 427 kts 323°
2026-04-26 13:13 43.08428 18.61702 29345 ft 429 kts 323°
2026-04-26 13:14 43.10839 18.59272 29701 ft 431 kts 323°
2026-04-26 13:14 43.13269 18.56838 30050 ft 434 kts 324°
2026-04-26 13:14 43.15870 18.54740 30340 ft 437 kts 333°
2026-04-26 13:14 43.18619 18.52920 30635 ft 439 kts 333°
2026-04-26 13:15 43.21409 18.51075 30909 ft 440 kts 333°
2026-04-26 13:15 43.24171 18.49242 31178 ft 442 kts 333°
2026-04-26 13:15 43.26943 18.47398 31435 ft 443 kts 333°
2026-04-26 13:15 43.29713 18.45551 31765 ft 443 kts 333°
2026-04-26 13:16 43.32477 18.43703 32141 ft 441 kts 333°
2026-04-26 13:16 43.35237 18.41857 32501 ft 440 kts 333°
2026-04-26 13:16 43.37984 18.40020 32863 ft 439 kts 333°
2026-04-26 13:16 43.40723 18.38183 33232 ft 438 kts 333°
2026-04-26 13:17 43.46188 18.34522 33981 ft 436 kts 333°
2026-04-26 13:17 43.48913 18.32694 34302 ft 435 kts 333°
2026-04-26 13:18 43.54336 18.29042 34950 ft 433 kts 332°
2026-04-26 13:18 43.57039 18.27219 35255 ft 432 kts 332°
2026-04-26 13:18 43.62446 18.23573 35782 ft 432 kts 332°
2026-04-26 13:19 43.65148 18.21750 36012 ft 432 kts 332°
2026-04-26 13:19 43.70536 18.18116 36104 ft 430 kts 332°
2026-04-26 13:20 43.75892 18.14490 36109 ft 428 kts 332°
2026-04-26 13:20 43.81265 18.10835 36106 ft 428 kts 332°
2026-04-26 13:21 43.86603 18.07201 36107 ft 427 kts 332°
2026-04-26 13:21 43.91930 18.03563 36100 ft 427 kts 332°
2026-04-26 13:22 43.97258 17.99921 36116 ft 427 kts 332°
2026-04-26 13:22 44.02593 17.96276 36106 ft 427 kts 332°
2026-04-26 13:23 44.07922 17.92624 36107 ft 427 kts 332°
2026-04-26 13:23 44.13257 17.88955 36113 ft 427 kts 332°
2026-04-26 13:24 44.18587 17.85281 36126 ft 428 kts 332°
2026-04-26 13:24 44.23916 17.81602 36126 ft 428 kts 332°
2026-04-26 13:25 44.29250 17.77914 36122 ft 428 kts 332°
2026-04-26 13:25 44.34582 17.74222 36124 ft 428 kts 332°
2026-04-26 13:26 44.39914 17.70514 36136 ft 428 kts 332°
2026-04-26 13:26 44.45243 17.66802 36136 ft 428 kts 332°
2026-04-26 13:27 44.50571 17.63092 36136 ft 428 kts 332°
2026-04-26 13:27 44.55896 17.59367 36139 ft 428 kts 332°
2026-04-26 13:28 44.61220 17.55642 36147 ft 428 kts 332°
2026-04-26 13:28 44.66539 17.51905 36145 ft 427 kts 332°
2026-04-26 13:29 44.71862 17.48166 36144 ft 428 kts 332°
2026-04-26 13:29 44.77182 17.44421 36141 ft 428 kts 332°
2026-04-26 13:30 44.82500 17.40664 36146 ft 428 kts 332°
2026-04-26 13:30 44.87850 17.36887 36153 ft 427 kts 332°
2026-04-26 13:31 44.93168 17.33122 36153 ft 427 kts 332°
2026-04-26 13:31 44.98472 17.29337 36154 ft 427 kts 332°
2026-04-26 13:32 45.03782 17.25549 36145 ft 427 kts 332°
2026-04-26 13:32 45.09085 17.21771 36151 ft 427 kts 332°
2026-04-26 13:33 45.14395 17.17982 36150 ft 427 kts 332°
2026-04-26 13:33 45.19700 17.14186 36151 ft 427 kts 332°
2026-04-26 13:34 45.24996 17.10387 36152 ft 427 kts 332°
2026-04-26 13:34 45.30289 17.06572 36161 ft 427 kts 332°
2026-04-26 13:35 45.35578 17.02747 36157 ft 426 kts 332°
2026-04-26 13:35 45.40869 16.98927 36163 ft 426 kts 332°
2026-04-26 13:36 45.46158 16.95106 36159 ft 426 kts 332°
2026-04-26 13:36 45.51440 16.91281 36159 ft 426 kts 331°
2026-04-26 13:37 45.56718 16.87438 36164 ft 426 kts 331°
2026-04-26 13:37 45.61996 16.83584 36163 ft 426 kts 331°
2026-04-26 13:38 45.67301 16.79715 36164 ft 426 kts 331°
2026-04-26 13:38 45.72579 16.75861 36164 ft 425 kts 331°
2026-04-26 13:39 45.77848 16.71994 36165 ft 425 kts 331°
2026-04-26 13:39 45.83106 16.68120 36168 ft 425 kts 331°
2026-04-26 13:40 45.88371 16.64247 36167 ft 425 kts 331°
2026-04-26 13:40 45.93640 16.60368 36169 ft 425 kts 331°
2026-04-26 13:41 45.98900 16.56478 36178 ft 425 kts 331°
2026-04-26 13:41 46.04157 16.52571 36174 ft 425 kts 331°
2026-04-26 13:42 46.09410 16.48662 36160 ft 425 kts 331°
2026-04-26 13:42 46.14670 16.44752 36163 ft 426 kts 331°
2026-04-26 13:43 46.19900 16.40850 36180 ft 426 kts 330°
2026-04-26 13:43 46.24307 16.37551 36172 ft 426 kts 330°
2026-04-26 13:44 46.29570 16.33611 36172 ft 426 kts 330°
2026-04-26 13:44 46.34837 16.29662 36173 ft 426 kts 330°
2026-04-26 13:45 46.40427 16.26787 36176 ft 431 kts 348°
2026-04-26 13:45 46.46347 16.25392 36166 ft 430 kts 348°
2026-04-26 13:45 46.49298 16.24698 35900 ft 430 kts 348°
2026-04-26 13:46 46.52257 16.23998 35661 ft 431 kts 348°
2026-04-26 13:46 46.55221 16.23294 35407 ft 431 kts 348°
2026-04-26 13:46 46.58186 16.22587 35159 ft 432 kts 348°
2026-04-26 13:46 46.61158 16.21882 34419 ft 435 kts 348°
2026-04-26 13:47 46.64154 16.21167 33405 ft 439 kts 348°
2026-04-26 13:47 46.67175 16.20442 32549 ft 439 kts 348°
2026-04-26 13:47 46.70150 16.19732 32042 ft 431 kts 348°
2026-04-26 13:47 46.73096 16.19034 31425 ft 426 kts 348°
2026-04-26 13:48 46.76043 16.18338 30812 ft 422 kts 348°
2026-04-26 13:48 46.78929 16.17653 30223 ft 418 kts 348°
2026-04-26 13:48 46.81782 16.16971 29594 ft 413 kts 348°
2026-04-26 13:48 46.84602 16.16297 29022 ft 408 kts 348°
2026-04-26 13:49 46.87386 16.15630 28463 ft 403 kts 348°
2026-04-26 13:49 46.90138 16.14967 27906 ft 399 kts 348°
2026-04-26 13:49 46.92860 16.14309 27363 ft 394 kts 348°
2026-04-26 13:49 46.95557 16.13654 26801 ft 391 kts 348°
2026-04-26 13:50 46.98231 16.13006 26246 ft 388 kts 348°
2026-04-26 13:50 47.00888 16.12365 25691 ft 386 kts 349°
2026-04-26 13:50 47.03526 16.11731 25151 ft 383 kts 349°
2026-04-26 13:50 47.06147 16.11100 24627 ft 380 kts 349°
2026-04-26 13:51 47.08753 16.10469 24109 ft 378 kts 349°
2026-04-26 13:51 47.11337 16.09841 23574 ft 376 kts 348°
2026-04-26 13:51 47.13904 16.09217 23026 ft 372 kts 349°
2026-04-26 13:51 47.16445 16.08597 22528 ft 368 kts 349°
2026-04-26 13:52 47.18955 16.07988 22030 ft 364 kts 349°
2026-04-26 13:52 47.21446 16.07387 21518 ft 361 kts 349°
2026-04-26 13:52 47.23916 16.06790 21001 ft 358 kts 349°
2026-04-26 13:52 47.26365 16.06197 20474 ft 356 kts 349°
2026-04-26 13:53 47.28798 16.05605 19958 ft 354 kts 349°
2026-04-26 13:53 47.31221 16.05011 19440 ft 352 kts 349°
2026-04-26 13:53 47.33640 16.04416 18901 ft 351 kts 349°
2026-04-26 13:53 47.36060 16.04018 18363 ft 351 kts 358°
2026-04-26 13:54 47.38489 16.04437 17799 ft 352 kts 11°
2026-04-26 13:54 47.40818 16.05532 17280 ft 351 kts 16°
2026-04-26 13:54 47.43001 16.07149 16761 ft 355 kts 32°
2026-04-26 13:55 47.46825 16.11559 15763 ft 341 kts 33°
2026-04-26 13:55 47.48048 16.12989 15430 ft 338 kts 33°
2026-04-26 13:55 47.52326 16.18005 14177 ft 333 kts 33°
2026-04-26 13:56 47.54132 16.20130 13583 ft 331 kts 33°
2026-04-26 13:56 47.55923 16.22239 12990 ft 328 kts 33°
2026-04-26 13:56 47.57718 16.24348 12399 ft 330 kts 33°
2026-04-26 13:56 47.59519 16.26464 11826 ft 331 kts 33°
2026-04-26 13:57 47.61324 16.28587 11263 ft 331 kts 33°
2026-04-26 13:57 47.63130 16.30715 10699 ft 331 kts 33°
2026-04-26 13:57 47.64931 16.32839 10152 ft 330 kts 33°
2026-04-26 13:57 47.66718 16.34947 9549 ft 324 kts 33°
2026-04-26 13:58 47.68447 16.36993 8937 ft 311 kts 33°
2026-04-26 13:58 47.70107 16.38959 8351 ft 300 kts 32°
2026-04-26 13:58 47.71720 16.40864 7770 ft 292 kts 32°
2026-04-26 13:58 47.73286 16.42720 7181 ft 286 kts 32°
2026-04-26 13:59 47.74832 16.44554 6569 ft 283 kts 32°
2026-04-26 13:59 47.76355 16.46356 5926 ft 278 kts 33°
2026-04-26 13:59 47.77856 16.48130 5291 ft 272 kts 34°
2026-04-26 14:00 47.82050 16.53109 4279 ft 249 kts 35°
2026-04-26 14:00 47.83408 16.54719 4151 ft 249 kts 34°
2026-04-26 14:00 47.84321 16.55802 4057 ft 248 kts 33°
2026-04-26 14:01 47.86092 16.57910 3892 ft 246 kts 36°
2026-04-26 14:01 47.87404 16.59473 3770 ft 239 kts 34°
2026-04-26 14:01 47.88692 16.61010 3634 ft 237 kts 35°
2026-04-26 14:01 47.89966 16.62530 3513 ft 230 kts 34°
2026-04-26 14:02 47.91187 16.63987 3373 ft 219 kts 35°
2026-04-26 14:02 47.92414 16.65183 3246 ft 205 kts 18°
2026-04-26 14:02 47.93772 16.65435 3113 ft 193 kts 351°
2026-04-26 14:02 47.95032 16.64953 3009 ft 181 kts 344°
2026-04-26 14:03 47.96206 16.64463 2987 ft 167 kts 344°
2026-04-26 14:03 47.97260 16.64021 2908 ft 150 kts 344°
2026-04-26 14:03 47.98247 16.63607 2777 ft 144 kts 344°
2026-04-26 14:03 47.99213 16.63201 2624 ft 143 kts 345°
2026-04-26 14:04 48.00156 16.62805 2414 ft 140 kts 345°
2026-04-26 14:04 48.01084 16.62414 2244 ft 138 kts 345°
2026-04-26 14:04 48.01978 16.62037 2045 ft 128 kts 344°
2026-04-26 14:04 48.02832 16.61678 1874 ft 124 kts 346°
2026-04-26 14:05 48.03656 16.61330 1711 ft 122 kts 346°
2026-04-26 14:05 48.04475 16.60986 1535 ft 123 kts 347°
2026-04-26 14:05 48.05312 16.60650 1323 ft 124 kts 347°
2026-04-26 14:05 48.06097 16.60312 1210 ft 115 kts 342°
2026-04-26 14:06 48.06859 16.59916 999 ft 124 kts 347°
2026-04-26 14:06 48.07702 16.59592 951 ft 117 kts 344°
2026-04-26 14:06 48.08462 16.59269 735 ft 113 kts 349°
2026-04-26 14:06 48.09228 16.58977 612 ft 109 kts 345°
2026-04-26 14:07 48.09864 16.58716 618 ft 83 kts 343°
2026-04-26 14:07 48.10354 16.58516 615 ft 57 kts 343°
2026-04-26 14:07 48.10566 16.58420 611 ft 7 kts 341°
2026-04-26 14:07 48.10645 16.58382 617 ft 33 kts 338°
2026-04-26 14:08 48.10785 16.58196 609 ft 23 kts 315°
2026-04-26 14:08 48.10897 16.58032 616 ft 18 kts 315°
2026-04-26 14:08 48.11010 16.57944 614 ft 19 kts 341°
2026-04-26 14:08 48.11144 16.57888 616 ft 20 kts 345°
2026-04-26 14:09 48.11282 16.57831 614 ft 21 kts 343°
2026-04-26 14:09 48.11424 16.57772 616 ft 22 kts 345°
2026-04-26 14:09 48.11572 16.57715 613 ft 23 kts 346°
2026-04-26 14:09 48.11702 16.57618 615 ft 20 kts 292°
2026-04-26 14:10 48.11746 16.57496 614 ft 14 kts 329°
2026-04-26 14:10 48.11807 16.57403 613 ft 12 kts 257°
2026-04-26 14:10 48.11825 16.57297 614 ft 11 kts 294°
2026-04-26 14:10 48.11856 16.57186 609 ft 12 kts 275°
2026-04-26 14:11 48.11915 16.56955 613 ft 14 kts 297°
2026-04-26 14:11 48.11959 16.56824 611 ft 10 kts 295°
2026-04-26 14:11 48.11963 16.56750 611 ft 5 kts 224°
2026-04-26 14:12 48.11931 16.56725 609 ft 6 kts 207°
2026-04-26 14:12 48.11914 16.56712 618 ft 0 kts 205°